Regional Weather Roundup
Issued by NWS Kansas City/Pleasant Hill, MO

Current Version | Previous Version | Text Only | Print | Product List | Glossary On
Versions: 1 2 3 4 5 6 7 8 9 10 11 12 13 14 15 16 17 18 19 20 21 22 23 24 25 26 27 28 29 30 31 32 33 34 35 36 37 38 39 40 41 42 43 44 45 46 47 48
000
ASUS43 KEAX 282110
RWREAX

WEATHER ROUNDUP FOR EASTERN KANSAS AND NORTHWEST MISSOURI
NATIONAL WEATHER SERVICE KANSAS CITY/PLEASANT HILL MO
400 PM CDT TUE JUL 28 2015

KSZ040-057-103>105-MOZ028-029-037-043-282200-
...KANSAS CITY METROPOLITAN AREA...

CITY           SKY/WX    TMP DP  RH WIND       PRES   REMARKS
K.C. INTL      MOSUNNY   94  75  54 S14       29.88F HX 105
K.C. DOWNTOWN  SUNNY     97  73  45 S14       29.86F HX 107
LEES SUMMIT    SUNNY     93  72  50 S15G21    29.90F HX 101
OLATHE - IXD   SUNNY     95  72  47 S21       29.90S HX 103
OLATHE - OJC   SUNNY     93  72  50 S17G23    29.89S HX 101
LAWRENCE       SUNNY     96  71  44 S16       29.86F HX 103

$$

MOZ001>008-011>017-020>025-030>033-038>040-044>046-053-054-282200-
...NORTHERN AND CENTRAL MISSOURI...

CITY           SKY/WX    TMP DP  RH WIND       PRES   REMARKS
ST. JOSEPH     SUNNY     93  75  55 S16G22    29.85F HX 104
MOSBY          CLEAR     95  70  43 S9G18     29.87F HX 101
WARRENSBURG    SUNNY     91  70  49 S14G21    29.90S HX  97
WHITEMAN AFB   MOSUNNY   96  74  49 SW20      29.90F HX 105
CLINTON          N/A     95  73  49 S9        29.93F HX 105
SEDALIA        SUNNY     96  74  48 S15       29.93F HX 107
WARSAW         NOT AVBL
CHILLICOTHE      N/A     94  77  57 S10G16    29.89F HX 108
KIRKSVILLE     MOSUNNY   93  74  53 SW10      29.92R HX 103

$$

MOZ041-047>049-056>058-063>065-088>090-097-282200-
...EASTERN AND SOUTHERN MISSOURI...

CITY           SKY/WX    TMP DP  RH WIND       PRES   REMARKS
ST. LOUIS INTL MOSUNNY   99  75  46 W6        29.92F HX 112
SPIRIT OF STL  MOSUNNY   95  78  58 W8        29.90F HX 111
COLUMBIA       SUNNY     92  76  59 SW12      29.93F HX 104
JEFFERSON CITY MOSUNNY   94  74  52 S10       29.91F HX 104
ROLLA          MOSUNNY   90  77  65 S5        29.96S HX 103
OSAGE BEACH    SUNNY     95  73  49 S12       29.95F HX 105
SPRINGFIELD    MOSUNNY   92  74  55 S13       29.97F HX 101
BRANSON        MOSUNNY   91  73  55 SW6       30.01F HX 100
JOPLIN         MOSUNNY   94  73  50 S16       29.95F HX 103
WEST PLAINS    MOSUNNY   92  72  51 SW9       30.01F HX  99

$$

IAZ060-094-KSZ022-034>040-054-083-096-NEZ052-066-093-282200-
...KANSAS...SOUTHEAST NEBRASKA AND IOWA...

CITY           SKY/WX    TMP DP  RH WIND       PRES   REMARKS
TOPEKA         SUNNY     96  72  45 S18       29.85F HX 104
MANHATTAN      SUNNY    100  72  40 S18       29.83S HX 109
EMPORIA        SUNNY     99  69  37 S20G28    29.87S HX 105
CHANUTE        SUNNY     95  72  47 S17G26    29.91S HX 103
WICHITA        SUNNY     99  69  37 S23       29.86S HX 105
OMAHA          LGT RAIN  88  74  63 W8        29.87R HX  96
LINCOLN        PTSUNNY   93  74  53 VRB6      29.88S HX 103
FALLS CITY     SUNNY     94  77  57 S13G22    29.84S HX 108
LAMONI         MOSUNNY   92  77  61 S14G20    29.87S HX 105
DES MOINES     CLOUDY    88  74  63 N3        29.89R HX  96

$$



USA.gov is the U.S. government's official web portal to all federal, state and local government web resources and services.